Location: Mangamahoe
(40.7333°S, 175.7167°E)
Time: 22:42:54
(UTC+00:00)

Daily predictions for brighter satellites

Satellite Brightness Start Highest point End
(mag) Time Altitude Azimuth Time Altitude Azimuth Time Altitude Azimuth
Meteor 2-5 Rocket 4.1 12:00:28 10° SSW 12:06:18 55° W 12:07:00 52° WNW
Meteor 2-8 Rocket 4.3 12:09:11 65° N 12:10:10 87° E 12:16:27 10° S
ARIANE 5 R/B 3.1 12:06:02 10° SSE 12:09:52 52° ESE 12:09:52 52° ESE
ATLAS 5 CENTAUR R/B 4.1 12:09:35 10° WSW 12:11:06 13° W 12:11:06 13° W
Cosmos 921 Rocket 3.7 12:17:05 47° SW 12:17:05 47° SW 12:20:44 10° S
Spot 4 4.1 12:12:38 10° SSE 12:17:15 56° E 12:17:15 56° E
Cosmos 2082 Rocket 4.1 12:14:53 10° S 12:19:35 25° SE 12:23:31 13° ENE
Cosmos 2278 Rocket 2.3 12:19:53 58° ENE 12:20:06 59° ENE 12:25:44 10° SSE
Cosmos 1992 Rocket 4.5 12:16:54 10° SSW 12:21:43 47° W 12:21:43 47° W
Cosmos 1934 Rocket 3.9 12:24:58 60° NW 12:26:03 74° W 12:32:21 10° S
Cosmos 1605 Rocket 4.1 12:28:11 55° NNE 12:29:27 69° E 12:35:51 10° SSE
Cosmos 1023 Rocket 4.4 12:29:25 75° WNW 12:29:44 78° WSW 12:35:05 10° SSE
Cosmos 2292 Rocket 4.0 12:30:35 10° S 12:35:31 79° W 12:36:01 72° NNW
Cosmos 839 Rocket 4.0 12:30:16 10° SW 12:36:21 66° WNW 12:37:09 60° NNW
CZ-2D R/B 4.5 12:35:01 10° ENE 12:38:34 18° ESE 12:42:09 10° SSE
Meteor 1-21 Rocket 4.3 12:35:44 10° S 12:41:36 71° E 12:42:38 58° NE
SJ 16-02 3.2 12:42:58 20° E 12:42:58 20° E 12:45:47 10° SE
Aureole 3 3.9 12:39:00 10° S 12:45:01 84° E 12:45:30 74° NNE
Cosmos 407 Rocket 3.5 12:47:23 69° NE 12:47:42 71° ENE 12:53:05 10° SSE
IDEFIX/ARIANE 42P 2.8 12:49:49 54° ENE 12:50:47 66° ESE 12:56:04 10° S
MSX 4.0 12:50:23 50° NE 12:51:51 70° ESE 12:57:40 10° S
Timation 2 Rocket 3.9 12:51:08 57° NW 12:52:22 76° WSW 12:58:35 10° SSE
Nimbus 7 Rocket 4.3 12:53:08 61° NNW 12:54:04 73° WNW 13:00:03 10° SSW
Cosmos 1340 Rocket 3.5 12:56:53 49° SSW 12:56:53 49° SSW 12:59:58 10° S
Cosmos 1733 Rocket 3.2 13:01:51 64° WSW 13:01:51 64° WSW 13:06:02 10° S
USA 215 4.1 12:56:40 10° ESE 13:02:26 32° NE 13:03:08 31° NE
Resurs 1-4 Rocket 3.7 12:59:59 17° ENE 13:03:04 29° ESE 13:07:36 10° S
ALOS 2 3.1 13:02:54 10° S 13:07:14 50° WSW 13:07:14 50° WSW
Cosmos 1656 Rocket 4.3 13:12:37 38° NE 13:13:26 40° ENE 13:18:30 10° SE
Cosmos 1459 Rocket 4.4 13:16:26 37° NE 13:18:26 52° E 13:24:23 10° SSE
ALOS 4.2 13:16:18 14° ENE 13:19:06 24° ESE 13:22:49 10° SSE
SeaSat 1 3.6 13:17:14 17° ENE 13:20:38 39° ESE 13:25:15 10° S
CZ-2C R/B 3.4 13:15:43 10° SSE 13:21:01 44° E 13:22:35 36° NE
Cosmos 2221 Rocket 4.2 13:17:53 10° S 13:22:24 53° E 13:23:15 45° ENE
Cosmos 1908 Rocket 3.6 13:27:22 66° ENE 13:27:35 68° E 13:32:00 10° SSE
Envisat 4.2 13:27:09 19° NE 13:30:11 37° ESE 13:34:53 10° S
Cosmos 371 Rocket 3.5 13:30:27 53° NE 13:31:02 57° ENE 13:35:46 10° SSE
Cosmos 1025 Rocket 2.9 13:29:15 10° S 13:33:42 83° E 13:34:04 74° NE
Cosmos 1943 Rocket 3.4 13:34:02 25° W 13:36:04 32° WSW 13:41:09 10° S
Cosmos 1674 Rocket 3.6 13:34:55 10° SSW 13:39:23 62° W 13:39:27 62° W
Cosmos 468 Rocket 4.0 13:40:00 10° SSW 13:45:21 80° ESE 13:47:27 38° NNE
Cosmos 1763 Rocket 3.7 13:41:00 10° SSW 13:46:09 52° WNW 13:46:42 50° NW
Cosmos 1378 Rocket 4.5 13:42:51 10° SSW 13:46:26 33° W 13:46:26 33° W
FENGYUN 3A 3.8 13:46:15 50° NW 13:47:15 58° W 13:52:39 10° SSW
Cosmos 2369 Rocket 2.9 13:50:28 31° NNE 13:52:31 43° ENE 13:57:51 10° SE
Lacrosse 4 Rocket 3.4 13:52:48 16° ENE 13:53:37 17° ENE 13:56:19 10° ESE
CENTAUR R/B 3.8 13:51:01 26° NNE 13:55:19 42° ENE 14:02:11 10° SE
Cosmos 2251 Rocket 3.8 13:54:25 42° WNW 13:55:46 54° WSW 14:00:58 10° S
Cosmos 304 Rocket 3.7 13:57:25 54° NW 13:58:24 72° WSW 14:03:12 10° SSE
NPP 4.3 13:58:03 36° WNW 13:58:41 38° W 14:03:45 10° SSW
COSMOS 2441 4.4 13:59:13 51° NW 14:00:01 59° W 14:04:49 10° SSW
Cosmos 540 Rocket 3.9 13:58:35 10° SSW 14:03:27 42° WNW 14:03:58 41° WNW
Cosmos 2082 Rocket 2.4 13:58:22 10° SSW 14:03:55 51° WNW 14:05:17 42° NNW
Cosmos 2278 Rocket 4.0 14:01:41 16° W 14:04:35 22° SW 14:09:00 10° S
COSMOS 2406 3.2 14:02:38 10° SSW 14:08:27 89° W 14:12:14 22° NNE
ACS3 Solar Sail 2.2 14:08:42 14° NNE 14:13:59 64° ESE 14:20:01 10° S
Cosmos 1300 Rocket 3.6 14:13:36 50° NW 14:14:32 64° W 14:19:00 10° S
Cosmos 1812 3.0 14:16:32 37° ENE 14:16:41 37° E 14:19:25 10° SSE
CZ-2D R/B 2.2 14:15:36 35° N 14:17:55 67° WNW 14:23:27 10° SSW
SJ 16-02 2.3 14:19:29 30° W 14:20:27 33° WSW 14:24:25 10° S
Iridium 4 Rocket 4.2 14:16:35 21° NNE 14:20:30 60° E 14:26:17 10° S
Cosmos 2233 Rocket 4.1 14:17:42 27° N 14:21:18 75° E 14:27:33 10° S
ADEOS II 2.0 14:18:50 27° NNE 14:21:46 85° WNW 14:27:06 10° SSW
Cosmos 1802 Rocket 4.2 14:24:26 32° NNW 14:27:20 60° W 14:33:39 10° S
Lacrosse 5 rocket 1.2 14:27:00 45° WSW 14:27:33 51° SW 14:30:53 10° SE
IDEFIX/ARIANE 42P 4.4 14:30:31 15° W 14:30:41 15° W 14:33:42 10° SW
Cosmos 1869 3.0 14:30:26 50° NNW 14:31:18 85° W 14:35:01 10° S
Cosmos 2084 3.3 14:32:15 44° NW 14:33:29 79° SW 14:37:38 10° SSE
ATLAS 2AS CENTAUR R/B 2.9 14:29:34 10° SSW 14:37:03 86° ESE 14:44:27 10° NE
AQUA 4.1 14:33:47 12° NNE 14:38:06 66° ESE 14:42:50 10° S
Cosmos 2263 4.2 14:37:07 28° NNW 14:40:12 80° ENE 14:45:53 10° SSE
Cosmos 2058 4.1 14:36:42 10° S 14:40:27 38° ESE 14:44:10 10° NNE
USA 306 3.8 14:39:52 26° NNE 14:40:50 30° NE 14:43:58 10° ESE
FALCON 9 R/B 4.2 14:32:59 22° NW 14:41:41 37° N 14:47:39 10° ENE
Resurs 1-4 Rocket 2.8 14:41:01 29° NW 14:42:40 35° W 14:47:33 10° SSW
Cosmos 2297 3.7 14:39:54 29° NNW 14:42:56 76° WSW 14:48:45 10° SSE
Cosmos 1850 Rocket 4.1 14:39:57 26° N 14:42:59 78° ENE 14:48:23 10° SSE
CZ-2C R/B 4.3 14:40:58 10° NE 14:44:54 28° ESE 14:48:50 10° S
USA 215 3.4 14:39:09 10° SE 14:45:43 72° SW 14:50:28 20° WNW
H-2A R/B 2.1 14:48:34 32° NNW 14:50:04 50° W 14:54:00 10° SSW
Cosmos 2061 Rocket 4.1 14:46:14 23° NNW 14:50:32 74° W 14:57:04 10° S
H-2A R/B 2.1 14:46:33 15° N 14:51:06 78° WNW 14:56:38 10° SSW
Cosmos 841 Rocket 3.7 14:49:09 10° SSW 14:54:11 50° WNW 14:57:39 19° N
Tsikada Rocket 4.0 14:48:37 10° SSW 14:54:59 71° W 15:00:30 14° N
ALOS 3.0 14:54:22 27° NW 14:55:52 33° W 15:00:03 10° SSW
ADEOS Rocket 3.2 14:52:23 15° N 14:57:50 57° W 15:03:52 10° SSW
SeaSat 1 3.4 14:56:50 25° NW 14:58:03 27° WNW 15:02:15 10° SW
CZ-2C R/B 4.0 14:56:26 10° S 15:00:57 26° WSW 15:04:02 16° WNW
Cosmos 968 Rocket 3.9 15:05:12 22° NW 15:08:15 47° WSW 15:13:14 10° S
Envisat 4.1 15:07:16 21° NW 15:09:09 26° W 15:13:24 10° SW
Cosmos 1975 Rocket 3.8 15:05:48 10° SSW 15:09:44 33° W 15:11:46 22° NW
Cosmos 2151 Rocket 3.6 15:08:54 15° N 15:12:33 82° E 15:17:03 10° S
Cosmos 292 Rocket 3.8 15:12:25 17° NNW 15:16:04 82° ENE 15:20:51 10° SSE
H-2A R/B 2.5 15:12:47 10° SSE 15:16:49 71° ENE 15:20:24 13° N
USA 267 3.9 15:11:20 10° ENE 15:17:47 62° SE 15:24:17 10° SW
ARGOS 3.2 15:15:09 10° NNE 15:20:32 89° ESE 15:25:59 10° SSW
Cosmos 1400 Rocket 3.3 15:20:28 20° NW 15:22:40 40° WSW 15:26:21 10° S
MOZ.5/SAFIR/RUBIN 5/SL-8 4.0 15:19:33 10° SSE 15:24:18 71° ENE 15:29:01 10° N
Lacrosse 4 Rocket 2.1 15:28:18 16° WNW 15:31:06 38° WSW 15:35:00 10° SSE
Cosmos 2369 Rocket 3.5 15:32:14 12° WNW 15:36:39 28° SW 15:41:31 10° S
Okean 1 Rocket 3.1 15:33:25 10° N 15:37:53 83° W 15:42:27 10° S
MOS 1-B Rocket 4.1 15:32:39 10° N 15:38:16 48° W 15:43:44 10° SSW
Meteor 2-1 Rocket 4.3 15:37:18 10° N 15:42:49 82° E 15:48:30 10° S
Cosmos 1862 3.6 15:40:14 10° SSW 15:43:41 39° W 15:47:05 10° NNW
CENTAUR R/B 3.5 15:38:07 11° WNW 15:45:58 51° SW 15:52:43 10° SSE
ARIANE 6 FM1 Upper Stage 2.9 15:42:38 10° SW 15:47:02 53° WNW 15:51:18 10° NNE
Cosmos 2034 Rocket 4.4 15:41:21 10° N 15:47:30 68° E 15:53:42 10° SSE
Cosmos 44 3.0 15:44:14 10° SW 15:48:30 56° WNW 15:52:39 10° NNE
ASTEX 1 4.2 15:49:45 10° SSW 15:54:12 34° WSW 15:58:35 10° NW
Cosmos 1656 4.4 15:51:02 10° N 15:56:22 52° ENE 16:01:41 10° SSE
ACS3 Solar Sail 3.2 15:52:54 10° NW 15:57:12 19° W 16:01:29 10° SW
Meteor 2-3 Rocket 3.9 15:52:36 10° S 15:58:32 89° E 16:04:21 10° N
Okean 2 Rocket 3.8 15:55:32 10° NNW 15:59:46 39° WSW 16:04:03 10° S
Cosmos 2228 4.4 15:56:55 10° NNE 16:00:46 38° E 16:04:40 10° SSE
H-2A R/B 3.3 15:57:21 10° NNE 16:01:16 84° W 16:05:14 10° SSW
BlueWalker 3 2.4 15:58:05 10° SW 16:01:43 61° SE 16:05:18 10° ENE
Sich 1 Rocket 4.1 15:57:35 10° NNW 16:01:49 45° WSW 16:06:10 10° S
SL-08 RB Rocket 3.8 15:57:52 10° N 16:02:16 57° W 16:06:47 10° SSW
Cosmos 1892 Rocket 3.9 15:59:26 10° S 16:03:48 71° E 16:08:08 10° NNE
Lacrosse 5 rocket 3.7 16:04:40 10° SSW 16:05:15 10° SSW 16:05:50 10° SSW
Spot 2 4.3 16:01:40 10° S 16:05:35 47° WSW 16:09:27 10° NW
USA 306 3.3 16:05:35 10° WNW 16:09:10 37° SW 16:12:05 10° SSE
SJ-11-01 4.4 16:07:06 10° NNE 16:11:45 82° ESE 16:16:29 10° S
